Terminal Aerodrome Forecast
Issued by NWS Greer, SC

Home | Current Version | Previous Version | Text Only | Print | Product List | Glossary On
Versions: 1 2 3 4 5 6 7 8 9 10 11 12 13 14 15 16
000
FTUS42 KGSP 221508 AAB
TAFGSP
TAF AMD
KGSP 221508Z 2215/2312 03007KT 5SM -DZ BR OVC004
     FM221700 05005KT P6SM BKN015
     FM230000 04004KT P6SM OVC045
     FM230100 04004KT P6SM OVC030
     FM230600 03003KT 2SM BR OVC010=

USA.gov is the U.S. government's official web portal to all federal, state and local government web resources and services.